Regional Weather Roundup
Issued by NWS

Home | Current Version | Previous Version | Text Only | Print | Product List | Glossary Off
Versions: 1 2 3 4 5 6 7 8 9 10 11 12 13 14 15 16 17 18 19 20 21 22 23 24 25 26 27 28 29 30 31 32 33 34 35 36 37 38 39 40 41 42 43 44 45 46 47 48 49 50

227
ASUS45 KTFX 280210
RWRMT
MONTANA REGIONAL WEATHER ROUNDUP
NATIONAL WEATHER SERVICE GREAT FALLS MT
800 PM MDT FRI MAY 27 2016

NOTE: "FAIR" INDICATES FEW OR NO CLOUDS BELOW 12000 FEET WITH NO
SIGNIFICANT WEATHER AND/OR OBSTRUCTIONS TO VISIBILITY.

MTZ001>007-043-280300-
WEST OF THE DIVIDE

CITY           SKY/WX    TMP DP  RH WIND       PRES   REMARKS
KALISPELL      MOSUNNY   56  33  42 W10       29.92R
MISSOULA       PTSUNNY   57  34  41 NW14      29.97R
BUTTE          LGT RAIN  45  39  79 W9        29.98R
MULLAN PASS    MOSUNNY   40  29  64 VRB3      30.00R
ANACONDA         N/A     46  39  76 CALM      29.97S
DEER LODGE       N/A     50  43  76 S3        29.97R
EUREKA           N/A     55  36  47 SW10        N/A
HAMILTON         N/A     57  30  35 W7        29.96R
LIBBY            N/A     52  36  54 NW3       29.98R
$$

MTZ008-052>055-280300-
SOUTHWEST MONTANA

CITY           SKY/WX    TMP DP  RH WIND       PRES   REMARKS
BOZEMAN        LGT RAIN  50  45  83 W5        29.95R
DILLON         RAIN      46  43  89 NW7       29.96R FOG
W YELLOWSTONE  LGT RAIN  45  41  87 CALM      29.97R
ENNIS          MOCLDY    48  45  87 N6        30.00R
$$

MTZ009-010-012-014-046-048-049-054-280300-
EAST SLOPES AND CENTRAL MONTANA

CITY           SKY/WX    TMP DP  RH WIND       PRES   REMARKS
CUT BANK       MOSUNNY   56  35  45 W13       29.88R
GREAT FALLS    CLOUDY    57  36  45 NW5       29.89R
MALMSTROM AFB  LGT RAIN  52  47  83 S8        29.90R
HELENA         CLOUDY    56  38  50 SW9       29.90S
CHOTEAU          N/A     57  32  38 W14       29.89R
$$

MTZ011-013-016-021-045-047-050-051-280300-
NORTH CENTRAL MONTANA

CITY           SKY/WX    TMP DP  RH WIND       PRES   REMARKS
HAVRE          CLOUDY    57  51  80 S14       29.83R
LEWISTOWN      RAIN      50  46  86 W15       29.90R FOG
N BAR RANCH    LGT RAIN  52  46  82 W7        29.92R
CHINOOK          N/A     63  45  51 SW7       29.81R
$$

MTZ017>020-022>027-061-062-280300-
NORTHEAST MONTANA

CITY           SKY/WX    TMP DP  RH WIND       PRES   REMARKS
GLASGOW        PTCLDY    63  49  60 E17       29.81R
JORDAN           N/A     63  46  54 S7        29.81R
SIDNEY         CLOUDY    64  50  59 NE10      29.82S
WOLF POINT     CLOUDY    67  48  50 E9        29.82R
PLENTYWOOD       N/A     61  52  72 E13       29.86R
POPLAR           N/A     64  54  68 E9        29.83S
$$

MTZ028>42-056>058-280300-
SOUTHCENTRAL AND SOUTHEAST MONTANA

CITY           SKY/WX    TMP DP  RH WIND       PRES   REMARKS
BAKER          LGT RAIN  59  48  67 SE13      29.83R
BILLINGS       CLOUDY    54  48  80 E7        29.87R
LIVINGSTON     LGT RAIN  49  43  80 W10       29.92R
MILES CITY     PTCLDY    65  49  56 NE3       29.81R
FORSYTH          N/A     63  52  67 CALM      29.81S
$$

REGIONAL REPORTS...DAKOTAS

CITY           SKY/WX    TMP DP  RH WIND       PRES   REMARKS
WILLISTON      CLOUDY    61  52  72 E8        29.84S
MINOT          PTCLDY    62  55  77 NE10      29.82R
DICKINSON      PTCLDY    61  44  53 E5        29.80R
BEACH            N/A     61  45  55 CALM      29.86R
CROSBY         MOCLDY    57  57 100 E9        29.88S
WATFORD CITY   MOCLDY    59  54  82 N8        29.84S
BISMARCK       MOCLDY    65  51  60 E6        29.80R
GRAND FORKS    CLOUDY    71  57  61 NE7       29.76S
FARGO          CLOUDY    63  59  87 NW5       29.77S
BUFFALO SD       N/A     63  49  60 CALM      29.77R
RAPID CITY     CLOUDY    59  49  69 S7        29.84R
$$

REGIONAL REPORTS...WYOMING/IDAHO/WASHINGTON

CITY           SKY/WX    TMP DP  RH WIND       PRES   REMARKS
GILLETTE       CLEAR     57  43  59 CALM      29.86R
SHERIDAN       PTCLDY    60  43  53 E5        29.83S
BUFFALO WY     CLOUDY    56  44  64 W7        29.88S
CODY           CLOUDY    52  46  82 N12       29.88R
YELLOWSTONE LA   N/A     44  33  65 VRB3      30.02R
IDAHO FALLS    PTCLDY    61  32  33 SW14G26   29.88R
SALMON         CLOUDY    54  37  54 N9        29.93R
BOISE          SUNNY     66  23  19 N14       29.92R
SPOKANE        MOSUNNY   60  25  26 S13       29.96S
$$

REGIONAL REPORTS...ALBERTA

CITY           SKY/WX    TMP DP  RH WIND       PRES   REMARKS
LETHBRIDGE     PTSUNNY   57  34  41 W25G32    29.84R
MEDICINE HAT   CLOUDY    59  52  77 S3        29.81R
WATERTON GATE    N/A     50  30  46 W13G20      N/A
MILK RIVER       N/A     57  34  41 W14G20      N/A
ONEFOUR          N/A     55  46  71 E8          N/A
$$

REGIONAL REPORTS...SASKATCHEWAN

CITY           SKY/WX    TMP DP  RH WIND       PRES   REMARKS
SWIFT CURRENT  MOCLDY    61  48  63 S17G26    29.84S
REGINA         MOCLDY    63  50  63 E9G20     29.88R
SASKATOON      MOCLDY    64  50  59 E13       29.88S
CYPRESS HILLS    N/A     46  43  87 SW9         N/A
VAL MARIE        N/A     61  48  63 SE16        N/A
ROCKGLEN         N/A     55  50  82 E1          N/A
$$




USA.gov is the U.S. government's official web portal to all federal, state and local government web resources and services.